ARIANE 2 DEB, 33556

Orbit data source: Space-Track

ARIANE 2 DEB, 33556 is space debris in HEO originally from a launch on Fri, 27 Jan 1989 UTC launched from the French Guiana (FRGUI). Debris objects in space refer to the collection of defunct objects orbiting the Earth. Examples of debris include non-operational satellites, rocket bodies, and fragments generated from explosions, collisions, or faulty payload assembly.

Loading next visibility...
Identifier
33556, 1989-006AY
Orbit
HEO
Country
Flag of FRFR
Related business
Manufacturer
EADS/LV
Mission
Spacecraft
Bus & Motor
Unknown
Mass
Unknown
Launch date (UTC)
1989-01-27 (37 years ago)
Launch vehicle
Unknown
Launch site
French Guiana (FRGUI)
Object type
Payload
Rocket body
Debris
Shape & HBR
Unknown shape, 0.2 m
Radar Cross Section
Medium (>0.1 m² and <1 m²)

Expand to show TLE details & history
Last TLE update: 1 week ago

TLE from 1 week ago
0 ARIANE 2 DEB
1 33556U 89006AY  25285.16311698  .00000346  00000-0  82124-2 0  9994
2 33556   9.1422 232.6253 7096256 103.7092 338.1386  2.31511794 96664
Epoch: 2025-10-12T03:54Z
TLE epoch observation values (Epoch: 2025-10-12T03:54:53.307Z)
Latitude
Longitude
152.73491°
Altitude
8,070.171 km
Speed
6.217 km/s
True Right ascension
15h 29m 45s
True Declination
0° 00' 00"
Sunlit
Object was in daylight at epoch
Visualization orbit readout
Latitude
Unknown
Longitude
Unknown
Altitude
Unknown
Speed
Unknown
Apparent Right ascension
Unknown
Apparent Declination
Unknown
Sunlit
N/A
Visualization observer readout
Local Sidereal Time
10:17:30
Azimuth
Unknown
Elevation
Unknown
Doppler factor
Unknown
Orbital elements
Apogee altitude
34,896.002 km
Perigee altitude
632.142 km
Semi-major axis
24,142.209 km
Eccentricity
0.70963
Inclination
9.1422°
RAAN
232.6253°
Arg. of periapsis
103.7092°
True anomaly
256.4033°
Mean anomaly
338.1386°
Eccentric anomaly
304.71915°
Mean motion
0.5786 °/min
Orbital period
622.19 mins
BSTAR
0.0082124
Loading maneuver chart data...
Computing Atmospheric mass density...
Loading historical data...
Loading historical data...
Loading historical data...
Loading historical data...
Loading historical data...
Loading historical data...
Loading historical data...

Documentation

Showing up to 5 results
|